This is the latest recevied weather packets stored in our database for station/object N3MFL. If no packets are shown the sender has not sent any weather packets the latest 10 day(s).
| Time | Temp. | Humidity | Pressure | Rain* | Wind** | Luminosity | Snow |
|---|---|---|---|---|---|---|---|
| 1778018682 | 16.11° C | 69% | 1010.5 hPa | 0 mm | - | 82 W/m² | - |
| 1778018379 | 16.67° C | 69% | 1010.5 hPa | 0 mm | - | 128 W/m² | - |
| 1778018078 | 16.67° C | 69% | 1010.4 hPa | 0 mm | - | 142 W/m² | - |
| 1778017775 | 16.67° C | 69% | 1010.3 hPa | 0 mm | - | 120 W/m² | - |
| 1778017472 | 17.22° C | 67% | 1010.2 hPa | 0 mm | - | 179 W/m² | - |
| 1778017169 | 17.78° C | 66% | 1010.3 hPa | 0 mm | - | 163 W/m² | - |
| 1778016867 | 17.78° C | 66% | 1010.4 hPa | 0 mm | - | 193 W/m² | - |
| 1778016563 | 18.33° C | 64% | 1010.2 hPa | 0 mm | - | 215 W/m² | - |
| 1778016261 | 18.33° C | 65% | 1010.2 hPa | 0 mm | - | 249 W/m² | - |
| 1778015956 | 18.33° C | 65% | 1010.2 hPa | 0 mm | - | 258 W/m² | - |
| 1778015654 | 18.89° C | 63% | 1010.2 hPa | 0 mm | - | 277 W/m² | - |
| 1778015350 | 18.33° C | 64% | 1010.2 hPa | 0 mm | - | 292 W/m² | - |
| 1778015048 | 18.89° C | 64% | 1010.1 hPa | 0 mm | - | 303 W/m² | - |
| 1778014744 | 18.89° C | 64% | 1009.9 hPa | 0 mm | - | 310 W/m² | - |
| 1778014443 | 18.89° C | 62% | 1010 hPa | 0 mm | - | 330 W/m² | - |
| 1778014139 | 18.89° C | 64% | 1009.8 hPa | 0 mm | - | 344 W/m² | - |
| 1778013837 | 18.33° C | 64% | 1009.9 hPa | 0 mm | - | 362 W/m² | - |
| 1778013534 | 18.33° C | 65% | 1010.3 hPa | 0 mm | - | 376 W/m² | - |
| 1778013230 | 18.33° C | 65% | 1010.4 hPa | 0 mm | - | 390 W/m² | - |
| 1778012927 | 18.33° C | 64% | 1010.2 hPa | 0 mm | - | 401 W/m² | - |
| 1778012623 | 18.33° C | 65% | 1010.3 hPa | 0 mm | - | 415 W/m² | - |
| 1778012320 | 18.33° C | 64% | 1010.2 hPa | 0 mm | - | 430 W/m² | - |
| 1778012017 | 18.89° C | 63% | 1010.2 hPa | 0 mm | - | 440 W/m² | - |
| 1778011716 | 18.89° C | 62% | 1010.2 hPa | 0 mm | - | 452 W/m² | - |
| 1778011412 | 18.89° C | 64% | 1010 hPa | 0 mm | - | 465 W/m² | - |
* Rain latest hour (hover to see other rain measurements)
** Current wind speed in m/s (hover to see current wind gust speed)